Regional Weather Roundup
Issued by NWS

Home | Current Version | Previous Version | Text Only | Print | Product List | Glossary Off
Versions: 1 2 3 4 5 6 7 8 9 10 11 12 13 14 15 16 17 18 19 20 21 22 23 24 25 26 27 28 29 30 31 32 33 34 35 36 37 38 39 40 41 42 43 44 45 46 47 48 49 50

000
ASUS43 KLMK 060902
RWRKY
KENTUCKY REGIONAL WEATHER ROUNDUP
NATIONAL WEATHER SERVICE LOUISVILLE KY
400 AM EST FRI MAR 06 2015

NOTE "FAIR" INDICATES FEW OR NO CLOUDS BELOW 12,000 FEET
WITH NO SIGNIFICANT WEATHER AND/OR OBSTRUCTIONS TO VISIBILITY.

KYZ001>023-026-027-061>063-070>075-061000-
WESTERN AND SOUTH CENTRAL KENTUCKY

CITY           SKY/WX    TMP DP  RH WIND       PRES   REMARKS
PADUCAH        PTCLDY     1  -4  79 CALM      30.57F
HENDERSON      PTCLDY    -6  -9  84 CALM      30.59F
OWENSBORO      PTCLDY    -2  -6  82 CALM      30.59F
HOPKINSVILLE   PTCLDY     1  -3  85 CALM      30.55F
BOWLING GREEN  MOCLDY     9   3  77 CALM      30.56F
GLASGOW        NOT AVBL
$$

KYZ024-025-028>034-038-045-046-053-061000-
NORTH CENTRAL KENTUCKY

CITY           SKY/WX    TMP DP  RH WIND       PRES   REMARKS
LOUISVILLE/SDF PTCLDY    12   6  77 CALM      30.56S
LOUISVILLE/LOU MOCLDY     8   4  83 CALM      30.56F
FORT KNOX      PTCLDY     1  -3  83 W3        30.52S
$$

KYZ035>037-039>044-047>052-055>060-089>105-061000-
NORTHEAST KENTUCKY

CITY           SKY/WX    TMP DP  RH WIND       PRES   REMARKS
LEXINGTON      PTCLDY     4   1  88 NE5       30.52S WCI  -5
COVINGTON      PTCLDY     3   0  87 CALM      30.52F
FRANKFORT      PTCLDY    -5 -10  79 CALM      30.53S
$$

KYZ054-064>069-076>088-106>120-061000-
SOUTHEAST KENTUCKY

CITY           SKY/WX    TMP DP  RH WIND       PRES   REMARKS
JACKSON        PTCLDY    10   5  80 NE3       30.46S
LONDON         PTCLDY     6  -2  69 CALM      30.48S
SOMERSET       NOT AVBL
MIDDLESBORO    PTCLDY    15  10  82 CALM      30.48R
MONTICELLO     FOG       -8 -12  83 CALM      30.53S VSB<1/4
$$



USA.gov is the U.S. government's official web portal to all federal, state and local government web resources and services.